This is the latest recevied weather packets stored in our database for station/object DL1SEW-6. If no packets are shown the sender has not sent any weather packets the latest 10 day(s).
| Time | Temp. | Humidity | Pressure | Rain* | Wind** | Luminosity | Snow |
|---|---|---|---|---|---|---|---|
| 1778054104 | 14.44° C | 71% | 1005.8 hPa | 0 mm | - | 383 W/m² | - |
| 1778053204 | 13.89° C | 73% | 1005.9 hPa | 0 mm | - | 799 W/m² | - |
| 1778052304 | 13.33° C | 76% | 1005.8 hPa | 0 mm | - | 283 W/m² | - |
| 1778051403 | 12.22° C | 77% | 1005.7 hPa | 0 mm | - | 263 W/m² | - |
| 1778050503 | 11.67° C | 86% | 1005.6 hPa | 0 mm | - | 299 W/m² | - |
| 1778049603 | 10.56° C | 89% | 1005.5 hPa | 0 mm | - | 258 W/m² | - |
| 1778048704 | 9.44° C | 88% | 1005.3 hPa | 0 mm | - | 179 W/m² | - |
| 1778047803 | 8.89° C | 87% | 1005.2 hPa | 0 mm | - | 134 W/m² | - |
| 1778046904 | 8.89° C | 87% | 1005.4 hPa | 0 mm | - | 117 W/m² | - |
| 1778046007 | 8.33° C | 86% | 1005.4 hPa | 0 mm | - | 99 W/m² | - |
| 1778045107 | 8.33° C | 86% | 1005.5 hPa | 0 mm | - | 62 W/m² | - |
| 1778044208 | 8.33° C | 85% | 1005.6 hPa | 0 mm | - | 58 W/m² | - |
| 1778043309 | 8.89° C | 84% | 1005.6 hPa | 0 mm | - | 34 W/m² | - |
| 1778042408 | 8.89° C | 85% | 1005.6 hPa | 0 mm | - | 25 W/m² | - |
| 1778041508 | 8.89° C | 83% | 1005.6 hPa | 0 mm | - | 17 W/m² | - |
| 1778040606 | 8.89° C | 83% | 1005.5 hPa | 0 mm | - | 0 W/m² | - |
| 1778039706 | 8.89° C | 84% | 1005.6 hPa | 0 mm | - | 0 W/m² | - |
| 1778038806 | 8.89° C | 84% | 1005.6 hPa | 0 mm | - | 0 W/m² | - |
| 1778037907 | 8.89° C | 86% | 1005.7 hPa | 0 mm | - | 0 W/m² | - |
| 1778037008 | 8.33° C | 87% | 1006 hPa | 0 mm | - | 0 W/m² | - |
| 1778036107 | 8.33° C | 88% | 1006.2 hPa | 0 mm | - | 0 W/m² | - |
| 1778035205 | 7.78° C | 88% | 1006.1 hPa | 0 mm | - | 0 W/m² | - |
| 1778034307 | 7.78° C | 87% | 1006 hPa | 0 mm | - | 0 W/m² | - |
| 1778033405 | 7.78° C | 87% | 1006 hPa | 0 mm | - | 0 W/m² | - |
| 1778032505 | 7.78° C | 87% | 1006.2 hPa | 0 mm | - | 0 W/m² | - |
* Rain latest hour (hover to see other rain measurements)
** Current wind speed in m/s (hover to see current wind gust speed)